Location: Arrien
(43.3167°N, 0.1500°W)
Time: 05:10:28
(UTC+00:00)

Cosmos 1892 Rocket - Pass Details

Date: 15 October 2021
Orbit: 605 x 634 km, 82.5° (Epoch: 02 December)

Event Time Altitude Azimuth Distance (km) Brightness Sun altitude
Rises 18:35:25 0° 353° (N) 2,939 7.1 -15.0°
Reaches altitude 10° 18:37:41 10° 356° (N) 2,024 6.3 -15.4°
Maximum altitude 18:42:10 70° 81° (E) 674 3.5 -16.2°
Drops below altitude 10° 18:46:35 10° 165° (SSE) 1,994 6.0 -17.0°
Sets 18:48:48 0° 167° (SSE) 2,891 6.8 -17.4°
